| time (UTC) | temp F | wind direction | speed MPH | gust MPH | rain 1hr in | rain 24hr in | rain mn in | humidity % | barometer mb |
| 20260505003504 | 65 | 325 | 0.0 | 2.0 | 0.00 | 0.00 | 0.00 | 61 | 1010.3 |
| 20260505003010 | 66 | 325 | 0.0 | 2.0 | 0.00 | 0.00 | 0.00 | 61 | 1010.3 |
| 20260505002502 | 66 | 292 | 0.0 | 2.0 | 0.00 | 0.00 | 0.00 | 60 | 1010.2 |
| 20260505002002 | 66 | 156 | 0.0 | 2.0 | 0.00 | 0.00 | 0.00 | 60 | 1010.1 |
| 20260505001510 | 66 | 294 | 0.0 | 1.0 | 0.00 | 0.00 | 0.00 | 59 | 1010.2 |
| 20260505000008 | 67 | 263 | 0.0 | 2.0 | 0.00 | 0.00 | 0.00 | 56 | 1010.2 |
| 20260504235503 | 67 | 195 | 0.0 | 2.0 | 0.00 | 0.00 | 0.00 | 56 | 1010.2 |
| 20260504235003 | 67 | 196 | 0.0 | 3.0 | 0.00 | 0.00 | 0.00 | 55 | 1010.2 |
| 20260504234508 | 67 | 134 | 1.0 | 3.0 | 0.00 | 0.00 | 0.00 | 54 | 1010.2 |
| 20260504234006 | 68 | 205 | 0.0 | 5.0 | 0.00 | 0.00 | 0.00 | 53 | 1010.2 |
| 20260504233504 | 68 | 302 | 0.0 | 5.0 | 0.00 | 0.00 | 0.00 | 52 | 1010.2 |
| 20260504233008 | 68 | 341 | 1.0 | 5.0 | 0.00 | 0.00 | 0.00 | 51 | 1010.2 |
| 20260504232506 | 68 | 95 | 1.0 | 3.0 | 0.00 | 0.00 | 0.00 | 51 | 1010.1 |
| 20260504232003 | 69 | 183 | 0.0 | 5.0 | 0.00 | 0.00 | 0.00 | 49 | 1010.1 |
| 20260504231505 | 69 | 133 | 1.0 | 5.0 | 0.00 | 0.00 | 0.00 | 48 | 1010.2 |
| 20260504231002 | 69 | 79 | 0.0 | 5.0 | 0.00 | 0.00 | 0.00 | 48 | 1010.2 |
| 20260504230010 | 70 | 70 | 1.0 | 5.0 | 0.00 | 0.00 | 0.00 | 45 | 1010.2 |
| 20260504225504 | 70 | 197 | 1.0 | 6.0 | 0.00 | 0.00 | 0.00 | 44 | 1010.0 |
| 20260504225003 | 71 | 53 | 2.0 | 6.0 | 0.00 | 0.00 | 0.00 | 43 | 1010.1 |
| 20260504224513 | 71 | 90 | 0.0 | 3.0 | 0.00 | 0.00 | 0.00 | 43 | 1010.1 |
| 20260504224003 | 71 | 90 | 0.0 | 4.0 | 0.00 | 0.00 | 0.00 | 42 | 1010.2 |
| 20260504223507 | 71 | 194 | 1.0 | 4.0 | 0.00 | 0.00 | 0.00 | 41 | 1010.2 |
| 20260504223008 | 71 | 140 | 1.0 | 4.0 | 0.00 | 0.00 | 0.00 | 43 | 1010.1 |
| 20260504222504 | 71 | 80 | 0.0 | 3.0 | 0.00 | 0.00 | 0.00 | 42 | 1010.1 |
| 20260504222003 | 71 | 161 | 1.0 | 4.0 | 0.00 | 0.00 | 0.00 | 43 | 1010.1 |
| 20260504221512 | 71 | 69 | 1.0 | 4.0 | 0.00 | 0.00 | 0.00 | 43 | 1010.1 |
| 20260504221005 | 71 | 273 | 1.0 | 3.0 | 0.00 | 0.00 | 0.00 | 43 | 1010.1 |
| 20260504220507 | 72 | 99 | 0.0 | 3.0 | 0.00 | 0.00 | 0.00 | 42 | 1010.1 |
| 20260504215504 | 72 | 169 | 1.0 | 6.0 | 0.00 | 0.00 | 0.00 | 43 | 1010.1 |
| 20260504215002 | 72 | 126 | 1.0 | 6.0 | 0.00 | 0.00 | 0.00 | 43 | 1010.2 |
| 20260504214511 | 72 | 327 | 1.0 | 5.0 | 0.00 | 0.00 | 0.00 | 42 | 1010.2 |
| 20260504214008 | 72 | 78 | 1.0 | 6.0 | 0.00 | 0.00 | 0.00 | 43 | 1010.2 |
| 20260504213506 | 72 | 281 | 0.0 | 6.0 | 0.00 | 0.00 | 0.00 | 40 | 1010.2 |
| 20260504212507 | 73 | 208 | 1.0 | 6.0 | 0.00 | 0.00 | 0.00 | 40 | 1010.2 |
| 20260504212008 | 73 | 292 | 1.0 | 6.0 | 0.00 | 0.00 | 0.00 | 40 | 1010.2 |
| 20260504211514 | 73 | 209 | 1.0 | 5.0 | 0.00 | 0.00 | 0.00 | 40 | 1010.2 |
| 20260504211005 | 73 | 207 | 0.0 | 4.0 | 0.00 | 0.00 | 0.00 | 39 | 1010.2 |
| 20260504210506 | 73 | 175 | 1.0 | 4.0 | 0.00 | 0.00 | 0.00 | 38 | 1010.1 |
| 20260504210031 | 73 | 302 | 2.0 | 5.0 | 0.00 | 0.00 | 0.00 | 38 | 1010.3 |
| 20260504205506 | 73 | 219 | 1.0 | 6.0 | 0.00 | 0.00 | 0.00 | 38 | 1010.4 |
| 20260504205006 | 74 | 5 | 1.0 | 6.0 | 0.00 | 0.00 | 0.00 | 38 | 1010.3 |
| 20260504204528 | 74 | 125 | 1.0 | 5.0 | 0.00 | 0.00 | 0.00 | 36 | 1010.3 |
| 20260504204005 | 74 | 175 | 1.0 | 5.0 | 0.00 | 0.00 | 0.00 | 36 | 1010.3 |
| 20260504203506 | 74 | 9 | 1.0 | 4.0 | 0.00 | 0.00 | 0.00 | 37 | 1010.4 |
| 20260504202507 | 75 | 236 | 0.0 | 3.0 | 0.00 | 0.00 | 0.00 | 38 | 1010.6 |
| 20260504202008 | 75 | 84 | 0.0 | 3.0 | 0.00 | 0.00 | 0.00 | 38 | 1010.7 |
| 20260504201518 | 75 | 296 | 1.0 | 3.0 | 0.00 | 0.00 | 0.00 | 36 | 1010.7 |
| 20260504201005 | 75 | 84 | 0.0 | 3.0 | 0.00 | 0.00 | 0.00 | 37 | 1010.7 |
| 20260504200505 | 75 | 327 | 1.0 | 4.0 | 0.00 | 0.00 | 0.00 | 37 | 1010.7 |
| 20260504200020 | 75 | 170 | 1.0 | 4.0 | 0.00 | 0.00 | 0.00 | 36 | 1010.8 |
| 20260504195504 | 74 | 153 | 1.0 | 3.0 | 0.00 | 0.00 | 0.00 | 38 | 1010.9 |
| 20260504195006 | 74 | 134 | 0.0 | 3.0 | 0.00 | 0.00 | 0.00 | 36 | 1011.0 |
| 20260504194518 | 74 | 74 | 1.0 | 3.0 | 0.00 | 0.00 | 0.00 | 38 | 1011.0 |
| 20260504194007 | 74 | 170 | 1.0 | 3.0 | 0.00 | 0.00 | 0.00 | 36 | 1011.1 |
| 20260504193506 | 74 | 132 | 1.0 | 3.0 | 0.00 | 0.00 | 0.00 | 36 | 1011.3 |
| 20260504193020 | 74 | 173 | 1.0 | 3.0 | 0.00 | 0.00 | 0.00 | 37 | 1011.4 |
| 20260504192507 | 74 | 148 | 0.0 | 3.0 | 0.00 | 0.00 | 0.00 | 38 | 1011.5 |
| 20260504192009 | 73 | 280 | 0.0 | 3.0 | 0.00 | 0.00 | 0.00 | 37 | 1011.6 |
| 20260504191514 | 73 | 93 | 1.0 | 4.0 | 0.00 | 0.00 | 0.00 | 37 | 1011.6 |
| 20260504191008 | 73 | 164 | 1.0 | 4.0 | 0.00 | 0.00 | 0.00 | 35 | 1011.7 |
| 20260504190508 | 74 | 256 | 0.0 | 4.0 | 0.00 | 0.00 | 0.00 | 36 | 1011.7 |
| 20260504185506 | 73 | 347 | 1.0 | 4.0 | 0.00 | 0.00 | 0.00 | 36 | 1011.9 |
| 20260504185005 | 73 | 153 | 1.0 | 4.0 | 0.00 | 0.00 | 0.00 | 36 | 1011.9 |
| 20260504184524 | 73 | 103 | 0.0 | 3.0 | 0.00 | 0.00 | 0.00 | 37 | 1012.0 |
| 20260504184008 | 73 | 173 | 1.0 | 3.0 | 0.00 | 0.00 | 0.00 | 36 | 1012.0 |
| 20260504183506 | 73 | 184 | 0.0 | 4.0 | 0.00 | 0.00 | 0.00 | 36 | 1012.1 |
| 20260504183018 | 73 | 154 | 1.0 | 4.0 | 0.00 | 0.00 | 0.00 | 35 | 1012.1 |
| 20260504182507 | 72 | 263 | 0.0 | 4.0 | 0.00 | 0.00 | 0.00 | 36 | 1012.1 |
| 20260504182008 | 72 | 153 | 0.0 | 2.0 | 0.00 | 0.00 | 0.00 | 37 | 1012.1 |
| 20260504181522 | 72 | 138 | 1.0 | 4.0 | 0.00 | 0.00 | 0.00 | 38 | 1012.2 |
| 20260504181009 | 71 | 169 | 0.0 | 4.0 | 0.00 | 0.00 | 0.00 | 37 | 1012.2 |
| 20260504175504 | 71 | 202 | 0.0 | 3.0 | 0.00 | 0.00 | 0.00 | 37 | 1012.5 |
| 20260504175007 | 71 | 48 | 1.0 | 3.0 | 0.00 | 0.00 | 0.00 | 37 | 1012.5 |
| 20260504174507 | 71 | 178 | 1.0 | 4.0 | 0.00 | 0.00 | 0.00 | 38 | 1012.6 |
| 20260504174002 | 70 | 151 | 0.0 | 4.0 | 0.00 | 0.00 | 0.00 | 39 | 1012.7 |
| 20260504173504 | 70 | 77 | 1.0 | 6.0 | 0.00 | 0.00 | 0.00 | 40 | 1012.7 |
| 20260504173009 | 69 | 137 | 1.0 | 6.0 | 0.00 | 0.00 | 0.00 | 42 | 1012.8 |
| 20260504172503 | 69 | 115 | 1.0 | 3.0 | 0.00 | 0.00 | 0.00 | 40 | 1012.9 |
| 20260504172003 | 69 | 76 | 1.0 | 4.0 | 0.00 | 0.00 | 0.00 | 40 | 1012.9 |
| 20260504171516 | 69 | 103 | 1.0 | 4.0 | 0.00 | 0.00 | 0.00 | 39 | 1012.8 |
| 20260504170510 | 69 | 156 | 0.0 | 3.0 | 0.00 | 0.00 | 0.00 | 41 | 1013.0 |
| 20260504151007 | 65 | 333 | 1.0 | 3.0 | 0.00 | 0.00 | 0.00 | 41 | 1014.2 |
| 20260504150512 | 64 | 276 | 0.0 | 2.0 | 0.00 | 0.00 | 0.00 | 43 | 1014.3 |
| 20260504130509 | 58 | 216 | 1.0 | 4.0 | 0.00 | 0.00 | 0.00 | 51 | 1014.8 |
| 20260504110509 | 0 | 0.0 | 0.0 | 0.00 | 0.00 | 0.00 | 1015.3 | ||
| 20260504100507 | 0 | 0.0 | 0.0 | 0.00 | 0.00 | 0.00 | 1015.3 | ||
| 20260504082007 | 0 | 0.0 | 0.0 | 0.00 | 0.00 | 0.00 | 1015.6 | ||
| 20260504081533 | 0 | 0.0 | 0.0 | 0.00 | 0.00 | 0.00 | 1015.6 | ||
| 20260504081008 | 0 | 0.0 | 0.0 | 0.00 | 0.00 | 0.00 | 1015.7 | ||
| 20260504080508 | 0 | 0.0 | 0.0 | 0.00 | 0.00 | 0.00 | 1015.7 | ||
| 20260504050508 | 47 | 277 | 0.0 | 0.0 | 0.00 | 0.00 | 0.00 | 73 | 1015.8 |
| 20260504050021 | 47 | 277 | 0.0 | 0.0 | 0.00 | 0.00 | 0.00 | 72 | 1015.8 |
| 20260504045505 | 48 | 277 | 0.0 | 0.0 | 0.00 | 0.00 | 0.00 | 68 | 1015.8 |
| 20260504045008 | 48 | 264 | 0.0 | 0.0 | 0.00 | 0.00 | 0.00 | 69 | 1015.9 |
| 20260504044529 | 48 | 264 | 0.0 | 1.0 | 0.00 | 0.00 | 0.00 | 67 | 1016.0 |
| 20260504044010 | 49 | 264 | 0.0 | 1.0 | 0.00 | 0.00 | 0.00 | 67 | 1016.0 |
| 20260504043503 | 49 | 252 | 0.0 | 0.0 | 0.00 | 0.00 | 0.00 | 67 | 1015.9 |
| 20260504043015 | 48 | 251 | 0.0 | 0.0 | 0.00 | 0.00 | 0.00 | 66 | 1015.9 |
| 20260504042507 | 48 | 251 | 0.0 | 0.0 | 0.00 | 0.00 | 0.00 | 66 | 1015.9 |
| 20260504042008 | 48 | 273 | 0.0 | 0.0 | 0.00 | 0.00 | 0.00 | 64 | 1015.9 |
| 20260504041538 | 47 | 281 | 0.0 | 0.0 | 0.00 | 0.00 | 0.00 | 68 | 1015.8 |
| 20260504041009 | 47 | 281 | 0.0 | 0.0 | 0.00 | 0.00 | 0.00 | 69 | 1015.8 |
| 20260504040510 | 46 | 281 | 0.0 | 1.0 | 0.00 | 0.00 | 0.00 | 68 | 1015.8 |
| 20260504040032 | 45 | 282 | 0.0 | 1.0 | 0.00 | 0.00 | 0.00 | 70 | 1015.8 |
| 20260504035510 | 45 | 279 | 0.0 | 0.0 | 0.00 | 0.00 | 0.00 | 73 | 1015.8 |
| 20260504035006 | 45 | 279 | 0.0 | 0.0 | 0.00 | 0.00 | 0.00 | 74 | 1015.7 |
| 20260504034518 | 45 | 279 | 0.0 | 0.0 | 0.00 | 0.00 | 0.00 | 74 | 1015.6 |
| 20260504034007 | 45 | 279 | 0.0 | 0.0 | 0.00 | 0.00 | 0.00 | 75 | 1015.6 |
| 20260504033507 | 45 | 279 | 0.0 | 0.0 | 0.00 | 0.00 | 0.00 | 75 | 1015.6 |
| 20260504033025 | 45 | 279 | 0.0 | 0.0 | 0.00 | 0.00 | 0.00 | 75 | 1015.5 |
| 20260504032509 | 45 | 290 | 0.0 | 0.0 | 0.00 | 0.00 | 0.00 | 75 | 1015.4 |
| 20260504032012 | 45 | 290 | 0.0 | 0.0 | 0.00 | 0.00 | 0.00 | 74 | 1015.3 |
| 20260504031530 | 45 | 290 | 0.0 | 0.0 | 0.00 | 0.00 | 0.00 | 73 | 1015.2 |
| 20260504031006 | 45 | 290 | 0.0 | 0.0 | 0.00 | 0.00 | 0.00 | 73 | 1015.2 |
| 20260504030508 | 45 | 290 | 0.0 | 0.0 | 0.00 | 0.00 | 0.00 | 72 | 1015.2 |
| 20260504030022 | 45 | 290 | 0.0 | 0.0 | 0.00 | 0.00 | 0.00 | 72 | 1015.3 |
| 20260504025507 | 45 | 290 | 0.0 | 0.0 | 0.00 | 0.00 | 0.00 | 72 | 1015.2 |
| 20260504025011 | 45 | 290 | 0.0 | 0.0 | 0.00 | 0.00 | 0.00 | 71 | 1015.2 |
| 20260504024526 | 46 | 290 | 0.0 | 0.0 | 0.00 | 0.00 | 0.00 | 71 | 1015.2 |
| 20260504024009 | 46 | 290 | 0.0 | 0.0 | 0.00 | 0.00 | 0.00 | 70 | 1015.2 |
| 20260504023507 | 46 | 290 | 0.0 | 0.0 | 0.00 | 0.00 | 0.00 | 70 | 1015.2 |
| 20260504023018 | 46 | 290 | 0.0 | 0.0 | 0.00 | 0.00 | 0.00 | 69 | 1015.2 |
| 20260504022507 | 47 | 290 | 0.0 | 0.0 | 0.00 | 0.00 | 0.00 | 68 | 1015.2 |
| 20260504022008 | 47 | 290 | 0.0 | 0.0 | 0.00 | 0.00 | 0.00 | 68 | 1015.2 |
| 20260504021524 | 47 | 290 | 0.0 | 0.0 | 0.00 | 0.00 | 0.00 | 67 | 1015.2 |
| 20260504021006 | 47 | 290 | 0.0 | 0.0 | 0.00 | 0.00 | 0.00 | 67 | 1015.2 |
| 20260504020508 | 47 | 290 | 0.0 | 0.0 | 0.00 | 0.00 | 0.00 | 67 | 1015.1 |
| 20260504020036 | 48 | 290 | 0.0 | 0.0 | 0.00 | 0.00 | 0.00 | 66 | 1015.1 |
| 20260504015507 | 48 | 290 | 0.0 | 0.0 | 0.00 | 0.00 | 0.00 | 65 | 1015.2 |
| 20260504015005 | 48 | 290 | 0.0 | 0.0 | 0.00 | 0.00 | 0.00 | 64 | 1015.1 |
| 20260504014502 | 48 | 290 | 0.0 | 0.0 | 0.00 | 0.00 | 0.00 | 63 | 1015.2 |
| 20260504014006 | 49 | 290 | 0.0 | 0.0 | 0.00 | 0.00 | 0.00 | 63 | 1015.1 |
| 20260504013505 | 49 | 290 | 0.0 | 0.0 | 0.00 | 0.00 | 0.00 | 62 | 1015.1 |
| 20260504013006 | 49 | 290 | 0.0 | 0.0 | 0.00 | 0.00 | 0.00 | 61 | 1015.1 |
| 20260504012508 | 49 | 290 | 0.0 | 0.0 | 0.00 | 0.00 | 0.00 | 60 | 1015.0 |
| 20260504012004 | 50 | 290 | 0.0 | 0.0 | 0.00 | 0.00 | 0.00 | 60 | 1015.0 |
| 20260504011515 | 50 | 290 | 0.0 | 0.0 | 0.00 | 0.00 | 0.00 | 56 | 1014.9 |
| 20260504011001 | 51 | 290 | 0.0 | 0.0 | 0.00 | 0.00 | 0.00 | 55 | 1014.8 |
| 20260504010501 | 52 | 290 | 0.0 | 0.0 | 0.00 | 0.00 | 0.00 | 54 | 1014.8 |
| 20260504010005 | 52 | 290 | 0.0 | 0.0 | 0.00 | 0.00 | 0.00 | 52 | 1014.8 |
| 20260504005503 | 53 | 290 | 0.0 | 0.0 | 0.00 | 0.00 | 0.00 | 51 | 1014.8 |
| 20260504005004 | 54 | 290 | 0.0 | 0.0 | 0.00 | 0.00 | 0.00 | 49 | 1014.7 |
| 20260504004515 | 54 | 290 | 0.0 | 0.0 | 0.00 | 0.00 | 0.00 | 47 | 1014.6 |
| 20260504004004 | 55 | 290 | 0.0 | 0.0 | 0.00 | 0.00 | 0.00 | 47 | 1014.6 |